Starlink 3732

operational
NORAD ID: 52126 Int'l Des: 2022-029 Owner: SPXS Country: US Constellation: starlink
LEOCIRCULAR

Über Starlink 3732

Beschreibung wird geladen...

Live-Position

3D-Globus wird geladen...

Nächste Überflüge

Höhenverlauf

Altitude vs Time

uPlot chart will show altitude changes over time

Zweizeiliger Elementsatz

1 52126U 22029AQ 25354.20912311 -.00000108 00000-0 11311-4 0 9990
2 52126 53.2192 65.9228 0001406 94.4484 265.6669 15.08838577208929
Epoch: 20. Dez. 2025 • Age: 11 hours

Aktueller Status

Höhe 559.0 km
Geschwindigkeit 7.58 km/s
Subsatellitenpunkt -52.62°S, 20.93°E
Startdatum 19. März 2022
Alter 3.7 years
Typ internet

Technische Details

Klassifizierung Payload
Masse 297.00 kg
Trockenmasse 275.00 kg
Gesamtmasse 297.00 kg
Länge 0.20 m
Durchmesser 2.80 m
Spannweite 9.00 m
Form Box + pan
Hersteller SPXS
Bus-Typ Starlink
Phasenstatus In Orbit
Besitzer/Staat SPXS/US

Große Konstellationen

Loading constellations...